| time (UTC) | temp C | wind direction | speed KPH | gust KPH | rain 1hr cm | rain 24hr cm | rain mn cm | humidity % | barometer mb |
| 20260505051728 | 22 | 243 | 11.3 | 27.4 | 0.00 | 0.00 | 0.00 | 25 | 1004.0 |
| 20260505051229 | 22 | 240 | 16.1 | 27.4 | 0.00 | 0.00 | 0.00 | 25 | 1004.1 |
| 20260505050729 | 22 | 238 | 11.3 | 30.6 | 0.00 | 0.00 | 0.00 | 25 | 1004.1 |
| 20260505050228 | 22 | 247 | 14.5 | 30.6 | 0.00 | 0.00 | 0.00 | 25 | 1004.1 |
| 20260505050112 | 22 | 234 | 9.7 | 25.7 | 0.00 | 0.00 | 0.00 | 25 | 1004.1 |
| 20260505040729 | 23 | 223 | 9.7 | 22.5 | 0.00 | 0.00 | 0.00 | 24 | 1004.2 |
| 20260505040619 | 23 | 169 | 14.5 | 29.0 | 0.00 | 0.00 | 0.00 | 24 | 1004.2 |
| 20260505035730 | 23 | 200 | 11.3 | 29.0 | 0.00 | 0.00 | 0.00 | 24 | 1004.2 |
| 20260505035228 | 23 | 244 | 12.9 | 29.0 | 0.00 | 0.00 | 0.00 | 24 | 1004.2 |
| 20260505034728 | 23 | 257 | 12.9 | 29.0 | 0.00 | 0.00 | 0.00 | 23 | 1004.2 |
| 20260505034230 | 23 | 206 | 12.9 | 27.4 | 0.00 | 0.00 | 0.00 | 23 | 1004.2 |
| 20260505033729 | 23 | 224 | 12.9 | 29.0 | 0.00 | 0.00 | 0.00 | 23 | 1004.2 |
| 20260505033230 | 23 | 234 | 9.7 | 32.2 | 0.00 | 0.00 | 0.00 | 23 | 1004.1 |
| 20260505033115 | 23 | 252 | 17.7 | 33.8 | 0.00 | 0.00 | 0.00 | 22 | 1004.1 |
| 20260505032228 | 23 | 227 | 16.1 | 33.8 | 0.00 | 0.00 | 0.00 | 22 | 1004.0 |
| 20260505032117 | 23 | 221 | 16.1 | 35.4 | 0.00 | 0.00 | 0.00 | 20 | 1004.0 |
| 20260505031229 | 24 | 203 | 11.3 | 35.4 | 0.00 | 0.00 | 0.00 | 19 | 1003.9 |
| 20260505030729 | 24 | 228 | 9.7 | 27.4 | 0.00 | 0.00 | 0.00 | 18 | 1003.9 |
| 20260505030228 | 24 | 233 | 9.7 | 30.6 | 0.00 | 0.00 | 0.00 | 18 | 1003.8 |
| 20260505025728 | 24 | 224 | 8.0 | 30.6 | 0.00 | 0.00 | 0.00 | 18 | 1003.8 |
| 20260505025228 | 24 | 200 | 8.0 | 22.5 | 0.00 | 0.00 | 0.00 | 17 | 1003.8 |
| 20260505024729 | 25 | 272 | 9.7 | 25.7 | 0.00 | 0.00 | 0.00 | 17 | 1003.9 |
| 20260505024616 | 25 | 245 | 8.0 | 25.7 | 0.00 | 0.00 | 0.00 | 17 | 1003.7 |
| 20260505024117 | 25 | 231 | 11.3 | 22.5 | 0.00 | 0.00 | 0.00 | 17 | 1003.7 |
| 20260505023228 | 25 | 299 | 9.7 | 24.1 | 0.00 | 0.00 | 0.00 | 17 | 1003.7 |
| 20260505022731 | 25 | 235 | 9.7 | 24.1 | 0.00 | 0.00 | 0.00 | 16 | 1003.7 |
| 20260505022228 | 25 | 233 | 9.7 | 24.1 | 0.00 | 0.00 | 0.00 | 16 | 1003.7 |
| 20260505021728 | 25 | 213 | 12.9 | 27.4 | 0.00 | 0.00 | 0.00 | 16 | 1003.6 |
| 20260505021228 | 25 | 234 | 9.7 | 27.4 | 0.00 | 0.00 | 0.00 | 16 | 1003.6 |
| 20260505020728 | 25 | 217 | 9.7 | 25.7 | 0.00 | 0.00 | 0.00 | 16 | 1003.6 |
| 20260505020228 | 25 | 244 | 14.5 | 25.7 | 0.00 | 0.00 | 0.00 | 16 | 1003.5 |
| 20260505015730 | 25 | 231 | 14.5 | 20.9 | 0.00 | 0.00 | 0.00 | 16 | 1003.6 |
| 20260505015228 | 25 | 274 | 12.9 | 24.1 | 0.00 | 0.00 | 0.00 | 16 | 1003.7 |
| 20260505014728 | 25 | 210 | 11.3 | 24.1 | 0.00 | 0.00 | 0.00 | 16 | 1003.5 |
| 20260505014228 | 26 | 240 | 12.9 | 22.5 | 0.00 | 0.00 | 0.00 | 16 | 1003.5 |
| 20260505013729 | 26 | 221 | 9.7 | 33.8 | 0.00 | 0.00 | 0.00 | 16 | 1003.5 |
| 20260505013229 | 26 | 217 | 12.9 | 33.8 | 0.00 | 0.00 | 0.00 | 15 | 1003.3 |
| 20260505012728 | 26 | 231 | 16.1 | 27.4 | 0.00 | 0.00 | 0.00 | 15 | 1003.2 |
| 20260505012230 | 26 | 206 | 11.3 | 29.0 | 0.00 | 0.00 | 0.00 | 15 | 1003.5 |
| 20260505011728 | 26 | 235 | 17.7 | 29.0 | 0.00 | 0.00 | 0.00 | 15 | 1003.5 |
| 20260505011227 | 26 | 244 | 16.1 | 29.0 | 0.00 | 0.00 | 0.00 | 15 | 1003.3 |
| 20260505010729 | 26 | 276 | 12.9 | 29.0 | 0.00 | 0.00 | 0.00 | 15 | 1003.3 |
| 20260505010228 | 27 | 261 | 12.9 | 29.0 | 0.00 | 0.00 | 0.00 | 15 | 1003.2 |
| 20260505005728 | 27 | 221 | 16.1 | 29.0 | 0.00 | 0.00 | 0.00 | 15 | 1003.3 |
| 20260505005229 | 27 | 220 | 11.3 | 29.0 | 0.00 | 0.00 | 0.00 | 15 | 1003.3 |
| 20260505004729 | 27 | 261 | 9.7 | 33.8 | 0.00 | 0.00 | 0.00 | 15 | 1003.3 |
| 20260505004229 | 27 | 243 | 12.9 | 33.8 | 0.00 | 0.00 | 0.00 | 14 | 1003.5 |
| 20260505003729 | 27 | 190 | 16.1 | 33.8 | 0.00 | 0.00 | 0.00 | 14 | 1003.5 |
| 20260505003229 | 27 | 268 | 12.9 | 30.6 | 0.00 | 0.00 | 0.00 | 15 | 1003.6 |
| 20260505002728 | 27 | 285 | 8.0 | 27.4 | 0.00 | 0.00 | 0.00 | 14 | 1003.5 |
| 20260505002229 | 27 | 259 | 12.9 | 27.4 | 0.00 | 0.00 | 0.00 | 15 | 1003.5 |
| 20260505002009 | 28 | 241 | 14.5 | 37.0 | 0.00 | 0.00 | 0.00 | 14 | 1003.6 |
| 20260505001857 | 28 | 243 | 9.7 | 35.4 | 0.00 | 0.00 | 0.00 | 14 | 1003.6 |
| 20260505000728 | 28 | 216 | 9.7 | 37.0 | 0.00 | 0.00 | 0.00 | 14 | 1003.5 |
| 20260505000228 | 28 | 257 | 14.5 | 30.6 | 0.00 | 0.00 | 0.00 | 15 | 1003.7 |
| 20260504235728 | 28 | 264 | 12.9 | 33.8 | 0.00 | 0.00 | 0.00 | 15 | 1003.6 |
| 20260504235301 | 28 | 305 | 8.0 | 20.9 | 0.00 | 0.00 | 0.00 | 22 | 1003.7 |
| 20260504235252 | 28 | 226 | 6.4 | 17.7 | 0.00 | 0.00 | 0.00 | 22 | 1003.8 |
| 20260504235241 | 28 | 200 | 8.0 | 19.3 | 0.00 | 0.00 | 0.00 | 23 | 1003.7 |
| 20260504235233 | 28 | 221 | 12.9 | 33.8 | 0.00 | 0.00 | 0.00 | 18 | 1003.8 |
| 20260504233230 | 28 | 219 | 9.7 | 20.9 | 0.00 | 0.00 | 0.00 | 22 | 1003.8 |
| 20260504232727 | 28 | 164 | 8.0 | 20.9 | 0.00 | 0.00 | 0.00 | 23 | 1003.7 |
| 20260504232229 | 28 | 250 | 9.7 | 22.5 | 0.00 | 0.00 | 0.00 | 23 | 1003.8 |
| 20260504231729 | 28 | 237 | 11.3 | 24.1 | 0.00 | 0.00 | 0.00 | 22 | 1003.8 |
| 20260504231228 | 28 | 226 | 12.9 | 24.1 | 0.00 | 0.00 | 0.00 | 23 | 1003.8 |
| 20260504230730 | 28 | 231 | 8.0 | 30.6 | 0.00 | 0.00 | 0.00 | 22 | 1003.9 |
| 20260504230230 | 28 | 247 | 14.5 | 30.6 | 0.00 | 0.00 | 0.00 | 22 | 1003.8 |
| 20260504225728 | 28 | 178 | 11.3 | 22.5 | 0.00 | 0.00 | 0.00 | 21 | 1003.9 |
| 20260504225625 | 28 | 240 | 9.7 | 25.7 | 0.00 | 0.00 | 0.00 | 21 | 1003.9 |
| 20260504224727 | 28 | 307 | 11.3 | 25.7 | 0.00 | 0.00 | 0.00 | 22 | 1003.9 |
| 20260504224229 | 29 | 196 | 11.3 | 24.1 | 0.00 | 0.00 | 0.00 | 21 | 1004.0 |
| 20260504223729 | 29 | 227 | 11.3 | 22.5 | 0.00 | 0.00 | 0.00 | 20 | 1004.1 |
| 20260504223228 | 29 | 241 | 9.7 | 24.1 | 0.00 | 0.00 | 0.00 | 19 | 1004.2 |
| 20260504223114 | 30 | 230 | 12.9 | 24.1 | 0.00 | 0.00 | 0.00 | 19 | 1004.1 |
| 20260504222230 | 30 | 259 | 8.0 | 29.0 | 0.00 | 0.00 | 0.00 | 17 | 1004.2 |
| 20260504222122 | 30 | 238 | 11.3 | 29.0 | 0.00 | 0.00 | 0.00 | 19 | 1004.2 |
| 20260504221230 | 29 | 269 | 12.9 | 22.5 | 0.00 | 0.00 | 0.00 | 20 | 1004.3 |
| 20260504220729 | 29 | 248 | 9.7 | 22.5 | 0.00 | 0.00 | 0.00 | 20 | 1004.3 |
| 20260504220618 | 29 | 213 | 11.3 | 29.0 | 0.00 | 0.00 | 0.00 | 19 | 1004.3 |
| 20260504215729 | 29 | 203 | 12.9 | 29.0 | 0.00 | 0.00 | 0.00 | 19 | 1004.5 |
| 20260504215228 | 30 | 227 | 8.0 | 35.4 | 0.00 | 0.00 | 0.00 | 20 | 1004.5 |
| 20260504214728 | 30 | 202 | 14.5 | 35.4 | 0.00 | 0.00 | 0.00 | 19 | 1004.7 |
| 20260504214230 | 30 | 235 | 9.7 | 33.8 | 0.00 | 0.00 | 0.00 | 20 | 1004.7 |
| 20260504213728 | 29 | 285 | 16.1 | 33.8 | 0.00 | 0.00 | 0.00 | 19 | 1004.9 |
| 20260504213228 | 29 | 248 | 8.0 | 24.1 | 0.00 | 0.00 | 0.00 | 20 | 1004.8 |
| 20260504212728 | 30 | 214 | 16.1 | 24.1 | 0.00 | 0.00 | 0.00 | 19 | 1004.8 |
| 20260504212229 | 30 | 259 | 12.9 | 24.1 | 0.00 | 0.00 | 0.00 | 20 | 1005.0 |
| 20260504211729 | 30 | 252 | 8.0 | 29.0 | 0.00 | 0.00 | 0.00 | 21 | 1005.1 |
| 20260504211229 | 30 | 266 | 12.9 | 33.8 | 0.00 | 0.00 | 0.00 | 20 | 1005.2 |
| 20260504210728 | 30 | 262 | 12.9 | 33.8 | 0.00 | 0.00 | 0.00 | 20 | 1005.4 |
| 20260504210612 | 30 | 127 | 14.5 | 25.7 | 0.00 | 0.00 | 0.00 | 20 | 1005.4 |
| 20260504205728 | 30 | 244 | 14.5 | 30.6 | 0.00 | 0.00 | 0.00 | 20 | 1005.5 |
| 20260504205228 | 29 | 274 | 11.3 | 30.6 | 0.00 | 0.00 | 0.00 | 21 | 1005.5 |
| 20260504204729 | 29 | 278 | 14.5 | 30.6 | 0.00 | 0.00 | 0.00 | 20 | 1005.6 |
| 20260504204228 | 29 | 213 | 14.5 | 30.6 | 0.00 | 0.00 | 0.00 | 21 | 1005.8 |
| 20260504203730 | 28 | 269 | 8.0 | 27.4 | 0.00 | 0.00 | 0.00 | 22 | 1005.6 |
| 20260504203228 | 29 | 202 | 9.7 | 27.4 | 0.00 | 0.00 | 0.00 | 22 | 1005.7 |
| 20260504202729 | 28 | 237 | 8.0 | 25.7 | 0.00 | 0.00 | 0.00 | 23 | 1005.8 |
| 20260504202227 | 29 | 190 | 8.0 | 27.4 | 0.00 | 0.00 | 0.00 | 23 | 1005.8 |
| 20260504201728 | 29 | 262 | 11.3 | 29.0 | 0.00 | 0.00 | 0.00 | 24 | 1005.9 |
| 20260504201228 | 28 | 276 | 12.9 | 29.0 | 0.00 | 0.00 | 0.00 | 22 | 1006.0 |
| 20260504200728 | 29 | 240 | 8.0 | 25.7 | 0.00 | 0.00 | 0.00 | 23 | 1006.0 |
| 20260504200609 | 29 | 262 | 12.9 | 25.7 | 0.00 | 0.00 | 0.00 | 21 | 1006.0 |
| 20260504195729 | 29 | 272 | 9.7 | 24.1 | 0.00 | 0.00 | 0.00 | 25 | 1006.1 |
| 20260504195230 | 29 | 250 | 4.8 | 24.1 | 0.00 | 0.00 | 0.00 | 24 | 1006.4 |
| 20260504194729 | 28 | 275 | 14.5 | 24.1 | 0.00 | 0.00 | 0.00 | 24 | 1006.5 |
| 20260504194228 | 28 | 188 | 9.7 | 27.4 | 0.00 | 0.00 | 0.00 | 25 | 1006.4 |
| 20260504193728 | 28 | 274 | 14.5 | 27.4 | 0.00 | 0.00 | 0.00 | 24 | 1006.6 |
| 20260504193229 | 28 | 292 | 14.5 | 27.4 | 0.00 | 0.00 | 0.00 | 23 | 1006.6 |
| 20260504192730 | 28 | 262 | 16.1 | 27.4 | 0.00 | 0.00 | 0.00 | 22 | 1006.8 |
| 20260504192228 | 28 | 265 | 3.2 | 25.7 | 0.00 | 0.00 | 0.00 | 24 | 1006.7 |
| 20260504191728 | 28 | 268 | 11.3 | 25.7 | 0.00 | 0.00 | 0.00 | 22 | 1006.8 |
| 20260504191229 | 28 | 279 | 16.1 | 27.4 | 0.00 | 0.00 | 0.00 | 23 | 1006.9 |
| 20260504190728 | 28 | 243 | 11.3 | 27.4 | 0.00 | 0.00 | 0.00 | 23 | 1006.8 |
| 20260504190230 | 28 | 296 | 6.4 | 25.7 | 0.00 | 0.00 | 0.00 | 22 | 1006.9 |
| 20260504185727 | 28 | 219 | 12.9 | 25.7 | 0.00 | 0.00 | 0.00 | 23 | 1007.0 |
| 20260504185229 | 28 | 262 | 9.7 | 25.7 | 0.00 | 0.00 | 0.00 | 24 | 1006.9 |
| 20260504184729 | 28 | 228 | 12.9 | 24.1 | 0.00 | 0.00 | 0.00 | 25 | 1007.1 |
| 20260504184230 | 28 | 228 | 11.3 | 25.7 | 0.00 | 0.00 | 0.00 | 24 | 1007.2 |
| 20260504184113 | 28 | 228 | 12.9 | 27.4 | 0.00 | 0.00 | 0.00 | 25 | 1007.4 |
| 20260504183229 | 28 | 231 | 14.5 | 27.4 | 0.00 | 0.00 | 0.00 | 24 | 1007.5 |
| 20260504182728 | 28 | 257 | 12.9 | 32.2 | 0.00 | 0.00 | 0.00 | 24 | 1007.6 |
| 20260504182227 | 28 | 305 | 14.5 | 32.2 | 0.00 | 0.00 | 0.00 | 22 | 1007.8 |
| 20260504181728 | 28 | 252 | 11.3 | 25.7 | 0.00 | 0.00 | 0.00 | 24 | 1007.7 |
| 20260504181227 | 28 | 268 | 9.7 | 22.5 | 0.00 | 0.00 | 0.00 | 24 | 1007.7 |
| 20260504180728 | 28 | 289 | 12.9 | 22.5 | 0.00 | 0.00 | 0.00 | 24 | 1007.8 |
| 20260504180228 | 28 | 289 | 6.4 | 20.9 | 0.00 | 0.00 | 0.00 | 25 | 1007.9 |
| 20260504175729 | 28 | 261 | 11.3 | 22.5 | 0.00 | 0.00 | 0.00 | 25 | 1008.0 |
| 20260504175227 | 28 | 219 | 12.9 | 24.1 | 0.00 | 0.00 | 0.00 | 25 | 1008.0 |
| 20260504174728 | 28 | 266 | 11.3 | 30.6 | 0.00 | 0.00 | 0.00 | 24 | 1008.1 |
| 20260504174621 | 28 | 290 | 9.7 | 30.6 | 0.00 | 0.00 | 0.00 | 25 | 1008.3 |
| 20260504173728 | 28 | 262 | 11.3 | 24.1 | 0.00 | 0.00 | 0.00 | 24 | 1008.4 |
| 20260504173227 | 28 | 316 | 9.7 | 29.0 | 0.00 | 0.00 | 0.00 | 24 | 1008.3 |
| 20260504172730 | 28 | 353 | 9.7 | 29.0 | 0.00 | 0.00 | 0.00 | 24 | 1008.5 |
| 20260504172229 | 28 | 305 | 11.3 | 25.7 | 0.00 | 0.00 | 0.00 | 24 | 1008.6 |
| 20260504171728 | 28 | 276 | 11.3 | 27.4 | 0.00 | 0.00 | 0.00 | 25 | 1008.5 |
| 20260504171228 | 28 | 278 | 16.1 | 27.4 | 0.00 | 0.00 | 0.00 | 25 | 1008.6 |
| 20260504171118 | 28 | 279 | 14.5 | 32.2 | 0.00 | 0.00 | 0.00 | 24 | 1008.6 |
| 20260504170229 | 28 | 265 | 11.3 | 32.2 | 0.00 | 0.00 | 0.00 | 25 | 1008.8 |
| 20260504160228 | 26 | 299 | 8.0 | 19.3 | 0.00 | 0.00 | 0.00 | 29 | 1009.0 |
| 20260504150730 | 23 | 275 | 9.7 | 20.9 | 0.00 | 0.00 | 0.00 | 38 | 1009.4 |
| 20260504150228 | 22 | 281 | 9.7 | 20.9 | 0.00 | 0.00 | 0.00 | 40 | 1009.5 |
| 20260504150117 | 22 | 289 | 9.7 | 22.5 | 0.00 | 0.00 | 0.00 | 41 | 1009.4 |
| 20260504141227 | 18 | 228 | 8.0 | 16.1 | 0.00 | 0.00 | 0.00 | 53 | 1009.5 |
| 20260504140728 | 18 | 235 | 6.4 | 19.3 | 0.00 | 0.00 | 0.00 | 53 | 1009.4 |
| 20260504140226 | 18 | 262 | 8.0 | 19.3 | 0.00 | 0.00 | 0.00 | 53 | 1009.1 |
| 20260504130727 | 16 | 230 | 8.0 | 16.1 | 0.00 | 0.00 | 0.00 | 57 | 1008.9 |
| 20260504130228 | 16 | 262 | 9.7 | 22.5 | 0.00 | 0.00 | 0.00 | 57 | 1008.8 |
| 20260504120119 | 15 | 226 | 11.3 | 22.5 | 0.00 | 0.00 | 0.00 | 61 | 1008.3 |
| 20260504110227 | 15 | 228 | 12.9 | 24.1 | 0.00 | 0.00 | 0.00 | 61 | 1008.3 |
| 20260504110124 | 15 | 202 | 9.7 | 24.1 | 0.00 | 0.00 | 0.00 | 61 | 1008.1 |
| 20260504100228 | 15 | 226 | 9.7 | 19.3 | 0.00 | 0.00 | 0.00 | 61 | 1008.7 |
| 20260504081727 | 16 | 221 | 11.3 | 24.1 | 0.00 | 0.00 | 0.00 | 54 | 1009.4 |
| 20260504081228 | 16 | 221 | 11.3 | 32.2 | 0.00 | 0.00 | 0.00 | 54 | 1009.4 |
| 20260504080728 | 16 | 210 | 11.3 | 32.2 | 0.00 | 0.00 | 0.00 | 53 | 1009.5 |
| 20260504080227 | 16 | 269 | 11.3 | 29.0 | 0.00 | 0.00 | 0.00 | 53 | 1009.5 |
| 20260504080107 | 16 | 223 | 11.3 | 29.0 | 0.00 | 0.00 | 0.00 | 53 | 1009.5 |
| 20260504070228 | 16 | 224 | 9.7 | 17.7 | 0.00 | 0.00 | 0.00 | 51 | 1010.5 |
| 20260504060227 | 17 | 192 | 12.9 | 24.1 | 0.00 | 0.00 | 0.00 | 46 | 1011.0 |
| 20260504060120 | 17 | 207 | 9.7 | 22.5 | 0.00 | 0.00 | 0.00 | 46 | 1011.0 |